Location: Brno
(49.2000°N, 16.6330°E)
Time: 21:50:53
(UTC+02:00)

Vanguard 3 - Pass Details

Date: 03 August 2021
Orbit: 510 x 3260 km, 33.3° (Epoch: 22 September)

Event Time Altitude Azimuth Distance (km) Brightness Sun altitude
Rises 01:30:14 0° 275° (W) 7,197 12.0 -23.0°
Reaches altitude 10° 01:38:39 10° 256° (WSW) 6,173 11.4 -22.7°
Maximum altitude 01:46:55 14° 230° (SW) 5,556 10.9 -22.5°
Enters shadow 01:47:15 14° 229° (SW) 5,543 10.9 -22.5°
